LDPE-2

Last updated on Tue Sep 22 2026 00:03:16 GMT+0000 (Coordinated Universal Time)

1 54219U 22144A 26264.56776437 .00000006 00000+0 00000+0 0 9993 2 54219 5.8277 62.7219 0000259 306.8799 232.5522 0.98889002 12803
UTC large
Height (km)
Speed (km/s)
/
Latitude / Longitude
Inclination (degrees)
Orbital Period (minutes)
Azimuth
Elevation
Range (km)
Doppler Factor

Next 0 passes for location: London (51.5072 / 0.1276)

No passes found over London.
LDPE-2